SCP
0 0 0 0 0 0 0 0 0 0 0 0 0 0 0 0 0 0 0 0 0 0
0 0 0 0 0 0 0 0 0 0 0 0 0 0 0 0 0 0 0 0 0 0
0 0 0 0 0 0 0 0 0 0 0 0 0 0 0 0 0 0 0 0 0 0
0 0 0 0 0 0 0 0 0 0 0 0 0 0 0 0 0 0 0 0 0 0
0 0 0 0 0 0 0 0 0 0 0 0 0 0 0 0 0 0 0 0 0 0
0 0 0 0 0 0 0 0 0 0 0 0 0 0 0 0 0 0 0 0 0 0
0 0 0 0 0 0 0 0 0 0 0 0 0 0 0 0 0 0 0 0 0 0
0 0 0 0 0 0 0 0 0 0 0 0 0 0 0 0 0 0 0 0 0 0
0 0 0 0 0 0 0 0 0 0 0 0 0 0 0 0 0 0 0 0 0 0
0 0 0 0 0 0 0 0 0 0 0 0 0 0 0 0 0 0 0 0 0 0
0 0 0 0 0 0 0 0 0 0 0 0 0 0 0 0 0 0 0 0 0 0
0 0 0 0 0 0 0 0 0 0 0 0 0 0 0 0 0 0 0 0 0 0
0 0 0 0 0 0 0 0 0 0 0 0 0 0 0 0 0 0 0 0 0 0
0 0 0 0 0 0 0 0 0 0 0 0 0 0 0 0 0 0 0 0 0 0
Wind_Speed_500mb
7 1 5 9 13 16 19 23 25 28 30 30 32 33 34 34 34 34 32 31 29 27
13 6 5 10 15 19 22 25 27 28 30 31 33 34 35 35 35 35 34 32 31 28
19 13 10 12 17 21 25 26 27 28 30 31 33 35 35 36 37 37 35 34 33 31
25 20 16 15 19 25 29 29 29 30 32 33 34 35 36 37 38 38 37 36 35 34
33 27 22 20 23 28 31 32 31 32 34 35 36 37 38 38 39 39 37 37 37 36
39 35 29 26 28 31 33 32 32 32 35 37 38 39 39 40 41 40 39 39 40 39
43 41 34 31 33 34 36 33 32 34 37 39 41 42 42 43 43 43 42 42 43 42
45 42 38 37 36 37 39 36 36 39 41 42 44 45 45 46 47 47 46 46 46 47
46 42 42 40 39 40 39 39 42 45 47 49 49 48 48 51 51 51 51 50 50 50
41 42 42 42 41 40 39 41 45 49 53 56 56 54 53 54 56 56 54 55 54 55
41 43 44 42 42 42 44 47 52 57 59 62 62 58 57 58 61 61 59 58 57 58
41 41 42 44 46 47 52 57 61 64 66 67 64 61 61 61 63 64 64 62 61 61
40 43 47 49 49 51 55 60 62 66 69 69 67 62 63 62 65 67 67 65 65 64
44 48 51 54 55 59 63 66 68 70 70 71 69 65 63 63 65 66 66 68 67 64
Wind_Direction_500mb
200 189 15 6 356 351 348 348 350 352 354 354 354 353 353 352 350 349 348 346 343 341
222 245 315 342 345 340 336 335 337 340 343 344 345 344 344 343 341 341 339 337 334 334
232 249 284 318 330 330 326 322 322 326 331 333 334 335 335 334 333 332 331 329 327 325
238 250 269 298 316 322 320 315 312 315 320 323 325 326 326 326 325 324 323 322 320 318
241 251 265 287 303 312 315 310 305 305 310 313 316 318 318 319 318 317 316 315 314 313
245 251 261 276 290 302 308 303 298 298 301 304 307 309 310 311 312 311 309 310 309 308
248 250 257 271 284 295 301 298 295 294 296 299 300 302 303 303 306 305 304 305 305 305
250 250 255 267 279 290 294 296 294 293 294 296 297 297 296 297 299 301 299 300 302 303
248 249 254 265 276 284 288 292 292 294 294 294 295 295 292 292 293 295 294 296 299 300
245 248 255 265 274 279 284 288 293 294 293 291 290 291 290 288 288 289 291 293 296 297
243 248 257 264 270 276 283 288 292 293 293 288 285 285 286 284 284 286 289 289 291 292
245 252 258 265 271 277 282 286 288 288 287 284 282 279 282 279 280 282 286 288 289 290
255 261 267 272 277 282 285 289 290 289 287 284 279 275 277 276 276 279 284 288 289 290
265 271 276 280 285 288 289 290 291 289 285 282 278 275 274 274 275 279 283 285 287 289
Wind_Speed_850mb
7 1 5 9 13 16 19 23 25 28 30 30 32 33 34 34 34 34 32 31 29 27
13 6 5 10 15 19 22 25 27 28 30 31 33 34 35 35 35 35 34 32 31 28
19 13 10 12 17 21 25 26 27 28 30 31 33 35 35 36 37 37 35 34 33 31
25 20 16 15 19 25 29 29 29 30 32 33 34 35 36 37 38 38 37 36 35 34
33 27 22 20 23 28 31 32 31 32 34 35 36 37 38 38 39 39 37 37 37 36
39 35 29 26 28 31 33 32 32 32 35 37 38 39 39 40 41 40 39 39 40 39
43 41 34 31 33 34 36 33 32 34 37 39 41 42 42 43 43 43 42 42 43 42
45 42 38 37 36 37 39 36 36 39 41 42 44 45 45 46 47 47 46 46 46 47
46 42 42 40 39 40 39 39 42 45 47 49 49 48 48 51 51 51 51 50 50 50
41 42 42 42 41 40 39 41 45 49 53 56 56 54 53 54 56 56 54 55 54 55
41 43 44 42 42 42 44 47 52 57 59 62 62 58 57 58 61 61 59 58 57 58
41 41 42 44 46 47 52 57 61 64 66 67 64 61 61 61 63 64 64 62 61 61
40 43 47 49 49 51 55 60 62 66 69 69 67 62 63 62 65 67 67 65 65 64
44 48 51 54 55 59 63 66 68 70 70 71 69 65 63 63 65 66 66 68 67 64
Wind_Direction_850mb
200 189 15 6 356 351 348 348 350 352 354 354 354 353 353 352 350 349 348 346 343 341
222 245 315 342 345 340 336 335 337 340 343 344 345 344 344 343 341 341 339 337 334 334
232 249 284 318 330 330 326 322 322 326 331 333 334 335 335 334 333 332 331 329 327 325
238 250 269 298 316 322 320 315 312 315 320 323 325 326 326 326 325 324 323 322 320 318
241 251 265 287 303 312 315 310 305 305 310 313 316 318 318 319 318 317 316 315 314 313
245 251 261 276 290 302 308 303 298 298 301 304 307 309 310 311 312 311 309 310 309 308
248 250 257 271 284 295 301 298 295 294 296 299 300 302 303 303 306 305 304 305 305 305
250 250 255 267 279 290 294 296 294 293 294 296 297 297 296 297 299 301 299 300 302 303
248 249 254 265 276 284 288 292 292 294 294 294 295 295 292 292 293 295 294 296 299 300
245 248 255 265 274 279 284 288 293 294 293 291 290 291 290 288 288 289 291 293 296 297
243 248 257 264 270 276 283 288 292 293 293 288 285 285 286 284 284 286 289 289 291 292
245 252 258 265 271 277 282 286 288 288 287 284 282 279 282 279 280 282 286 288 289 290
255 261 267 272 277 282 285 289 290 289 287 284 279 275 277 276 276 279 284 288 289 290
265 271 276 280 285 288 289 290 291 289 285 282 278 275 274 274 275 279 283 285 287 289